Flag for Germany Weather past 2 weeks in Munich, Bavaria, Germany

Now
61 °F

Fog.


Feels Like: 61 °F
Forecast: 60 / 85 °F
Wind: 1 mph from West

Location: Munich / Franz Josef Strauss Airport

Current Time: Aug 31, 2015 at 5:18:48 AM

Latest Report: Aug 31, 2015 at 4:50 AM


Visibility: N/A

Pressure: 30.01 "Hg (28.20 "Hg at 526m altitude)

Humidity: 94%

Dew point: 59 °F

Location of MunichLocation

Historic Weather in Munich — Graph

°F

Munich temperature yesterday

Maximum temperature yesterday: 91 °F (at 3:50 PM)
Minimum temperature yesterday: 61 °F (at 4:20 AM)
Average temperature yesterday: 75 °F

Past Weeks' High & Low Weather Summary

 TemperatureHumidityPressure
High91 °F (Aug 30, 3:50 PM)100% (Aug 17, 11:50 PM)30.30 "Hg (Aug 17, 11:50 PM)
Low45 °F (Aug 22, 6:20 AM)24% (Aug 26, 5:20 PM)29.71 "Hg (Aug 24, 4:50 PM)
Average65 °F72%30.04 "Hg
* Reported Aug 16 4:20 AM — Aug 31 4:20 AM, Munich, Weather by CustomWeather, © 2015

Note: Actual official high and low records may vary slightly from our data, if they occured in-between our weather recording intervals... More about our weather records

Advertising

Munich weather history for previous 24 hours

 ConditionsComfort  
Time TempWeatherWind HumidityBarometerVisibility
4:20 AM
Mon, Aug 31
61 °FFog.1 mph94%30.01 "HgN/A
3:50 AM63 °FFog.2 mph94%30.01 "HgN/A
3:20 AM63 °FClear.2 mph94%30.04 "Hg10 mi
2:50 AM64 °FClear.1 mph94%30.04 "Hg10 mi
2:20 AM64 °FClear.No wind94%30.04 "Hg10 mi
1:50 AM64 °FClear.No wind88%30.04 "Hg10 mi
1:20 AM64 °FClear.No wind94%30.07 "Hg10 mi
12:50 AM66 °FClear.2 mph94%30.07 "Hg10 mi
12:20 AM66 °FClear.2 mph94%30.07 "Hg10 mi
11:50 PM
Sun, Aug 30
66 °FClear.1 mph88%30.07 "Hg10 mi
11:20 PM68 °FClear.1 mph88%30.07 "Hg10 mi
10:50 PM70 °FClear.2 mph83%30.07 "Hg10 mi
10:20 PM70 °FClear.1 mph78%30.07 "Hg10 mi
9:20 PM75 °FClear.1 mph65%30.07 "Hg10 mi
8:50 PM77 °FSunny.1 mph61%30.07 "Hg10 mi
8:20 PM81 °FSunny.2 mph54%30.07 "Hg10 mi
7:50 PM84 °FSunny.2 mph48%30.07 "Hg10 mi
7:20 PM88 °FSunny.1 mph40%30.07 "Hg10 mi
6:50 PM88 °FSunny.3 mph43%30.07 "Hg10 mi
6:20 PM90 °FPassing clouds.5 mph38%30.07 "HgN/A
5:50 PM90 °FPassing clouds.3 mph38%30.07 "HgN/A
5:20 PM90 °FSunny.2 mph36%30.07 "Hg10 mi
4:50 PM90 °FPassing clouds.3 mph36%30.07 "HgN/A
4:20 PM91 °FPassing clouds.3 mph41%30.07 "HgN/A
3:50 PM91 °FPassing clouds.3 mph41%30.09 "HgN/A
3:20 PM90 °FPassing clouds.3 mph38%30.09 "HgN/A
2:50 PM90 °FSunny.2 mph41%30.09 "Hg10 mi
2:20 PM88 °FSunny.3 mph43%30.12 "Hg10 mi
1:50 PM88 °FSunny.3 mph43%30.12 "Hg10 mi
1:20 PM86 °FSunny.5 mph49%30.12 "Hg10 mi
12:50 PM86 °FSunny.3 mph49%30.15 "Hg10 mi
12:20 PM84 °FPassing clouds.6 mph51%30.15 "HgN/A
11:50 AM82 °FPassing clouds.6 mph55%30.15 "HgN/A
11:20 AM81 °FPassing clouds.6 mph58%30.15 "HgN/A
10:50 AM79 °FPassing clouds.7 mph61%30.15 "HgN/A
10:20 AM77 °FPassing clouds.8 mph61%30.15 "HgN/A
9:50 AM75 °FSunny.7 mph65%30.15 "Hg10 mi
9:20 AM73 °FPassing clouds.6 mph74%30.15 "HgN/A
8:50 AM72 °FPassing clouds.3 mph73%30.15 "HgN/A
8:20 AM68 °FPassing clouds.6 mph83%30.15 "HgN/A
7:50 AM66 °FSunny.6 mph88%30.15 "Hg10 mi
7:20 AM63 °FPassing clouds.3 mph94%30.12 "HgN/A
6:50 AM61 °FClear.1 mph94%30.12 "Hg10 mi
6:20 AM61 °FClear.1 mph94%30.12 "Hg10 mi
5:50 AM61 °FClear.1 mph94%30.12 "Hg10 mi
5:20 AM61 °FClear.3 mph94%30.12 "Hg10 mi
Weather by CustomWeather, © 2015

See weather overviewHow to use our weather pages